DLH269 WIII-WSSS

Flight info

Callsign DLH269
Flight time N/A
Altitude 40000
Route DOLTA G579 REPOV REPOV2B
Aircraft A35K/H-SDE2E3GHIJ3J4J5LM1ORWXY/LB1D1

Departure

Time 2026-05-07 08:20
Airport Soekarno-Hatta International Airport (WIII)

Arrival

Time N/A
Airport Singapore Changi Airport (WSSS)
Time Latitude Longitude Altitude Speed Heading
2026-05-07 07:53 -6.11837 106.66226 32 ft 0 kts 156°
2026-05-07 08:09 -6.11822 106.66220 31 ft 3 kts 156°
2026-05-07 08:10 -6.11805 106.66212 31 ft 3 kts 165°
2026-05-07 08:10 -6.11785 106.66210 31 ft 3 kts 200°
2026-05-07 08:10 -6.11769 106.66220 30 ft 3 kts 236°
2026-05-07 08:10 -6.11761 106.66238 29 ft 3 kts 270°
2026-05-07 08:11 -6.11764 106.66256 30 ft 3 kts 301°
2026-05-07 08:11 -6.11767 106.66262 29 ft 0 kts 308°
2026-05-07 08:12 -6.11764 106.66258 29 ft 1 kts 307°
2026-05-07 08:12 -6.11761 106.66254 29 ft 0 kts 307°
2026-05-07 08:13 -6.11751 106.66241 42 ft 4 kts 307°
2026-05-07 08:13 -6.11743 106.66207 50 ft 5 kts 262°
2026-05-07 08:14 -6.11762 106.66164 28 ft 8 kts 246°
2026-05-07 08:14 -6.11789 106.66102 32 ft 11 kts 247°
2026-05-07 08:14 -6.11794 106.66023 33 ft 12 kts 299°
2026-05-07 08:14 -6.11716 106.65985 32 ft 14 kts 338°
2026-05-07 08:15 -6.11618 106.65946 32 ft 16 kts 339°
2026-05-07 08:15 -6.11515 106.65886 32 ft 17 kts 307°
2026-05-07 08:15 -6.11536 106.65768 32 ft 19 kts 247°
2026-05-07 08:15 -6.11588 106.65642 33 ft 21 kts 248°
2026-05-07 08:16 -6.11647 106.65498 33 ft 23 kts 249°
2026-05-07 08:16 -6.11703 106.65340 34 ft 25 kts 250°
2026-05-07 08:16 -6.11771 106.65176 35 ft 27 kts 245°
2026-05-07 08:16 -6.11842 106.64997 36 ft 28 kts 249°
2026-05-07 08:17 -6.11919 106.64808 37 ft 30 kts 247°
2026-05-07 08:17 -6.11997 106.64610 37 ft 32 kts 249°
2026-05-07 08:17 -6.12081 106.64399 38 ft 33 kts 248°
2026-05-07 08:17 -6.12170 106.64177 38 ft 34 kts 249°
2026-05-07 08:18 -6.12194 106.64117 39 ft 1 kts 248°
2026-05-07 08:18 -6.12200 106.64103 39 ft 4 kts 248°
2026-05-07 08:18 -6.12215 106.64066 39 ft 9 kts 247°
2026-05-07 08:18 -6.12247 106.63970 40 ft 20 kts 258°
2026-05-07 08:19 -6.12156 106.63895 40 ft 23 kts 21°
2026-05-07 08:19 -6.12037 106.64020 38 ft 29 kts 69°
2026-05-07 08:19 -6.11863 106.64459 38 ft 117 kts 68°
2026-05-07 08:19 -6.11450 106.65497 236 ft 187 kts 67°
2026-05-07 08:20 -6.10882 106.66670 1272 ft 194 kts 57°
2026-05-07 08:20 -6.09857 106.67602 1944 ft 204 kts 38°
2026-05-07 08:20 -6.08606 106.68421 2190 ft 226 kts 34°
2026-05-07 08:20 -6.07218 106.69306 2451 ft 247 kts 34°
2026-05-07 08:21 -6.05732 106.70285 2892 ft 260 kts 36°
2026-05-07 08:21 -6.04237 106.71303 3557 ft 264 kts 36°
2026-05-07 08:21 -6.02706 106.72361 4224 ft 268 kts 37°
2026-05-07 08:21 -6.01156 106.73441 4733 ft 270 kts 37°
2026-05-07 08:22 -5.99619 106.74515 4953 ft 273 kts 37°
2026-05-07 08:22 -5.97983 106.75496 4966 ft 277 kts 21°
2026-05-07 08:22 -5.96063 106.75608 4971 ft 282 kts 348°
2026-05-07 08:22 -5.94340 106.74670 4972 ft 285 kts 315°
2026-05-07 08:23 -5.93364 106.72984 4976 ft 286 kts 284°
2026-05-07 08:23 -5.93028 106.71016 4969 ft 286 kts 277°
2026-05-07 08:23 -5.92794 106.69700 4973 ft 287 kts 281°
2026-05-07 08:23 -5.92296 106.67770 4974 ft 286 kts 287°
2026-05-07 08:24 -5.91420 106.65266 4970 ft 286 kts 291°
2026-05-07 08:24 -5.90665 106.63406 4971 ft 287 kts 292°
2026-05-07 08:24 -5.90139 106.62182 4976 ft 287 kts 293°
2026-05-07 08:24 -5.89045 106.59753 5152 ft 288 kts 294°
2026-05-07 08:25 -5.88200 106.57914 5661 ft 289 kts 295°
2026-05-07 08:25 -5.87637 106.56693 5877 ft 288 kts 295°
2026-05-07 08:25 -5.86791 106.54868 5984 ft 288 kts 295°
2026-05-07 08:25 -5.85939 106.53030 5983 ft 290 kts 295°
2026-05-07 08:26 -5.84241 106.49374 5982 ft 290 kts 295°
2026-05-07 08:26 -5.83384 106.47535 5990 ft 291 kts 295°
2026-05-07 08:26 -5.82518 106.45678 5987 ft 292 kts 295°
2026-05-07 08:27 -5.81664 106.43845 5986 ft 292 kts 295°
2026-05-07 08:27 -5.80799 106.41978 5983 ft 292 kts 295°
2026-05-07 08:27 -5.79940 106.40122 5990 ft 293 kts 295°
2026-05-07 08:27 -5.79084 106.38279 5990 ft 293 kts 295°
2026-05-07 08:28 -5.78223 106.36421 5989 ft 293 kts 294°
2026-05-07 08:28 -5.77368 106.34577 5988 ft 293 kts 295°
2026-05-07 08:28 -5.76506 106.32717 5990 ft 292 kts 295°
2026-05-07 08:28 -5.75653 106.30880 5985 ft 293 kts 295°
2026-05-07 08:29 -5.74774 106.29035 5989 ft 293 kts 297°
2026-05-07 08:29 -5.73633 106.27347 5973 ft 292 kts 313°
2026-05-07 08:29 -5.72079 106.26041 5988 ft 290 kts 328°
2026-05-07 08:29 -5.70344 106.25007 5989 ft 290 kts 332°
2026-05-07 08:30 -5.68578 106.24025 5992 ft 290 kts 332°
2026-05-07 08:30 -5.66828 106.23055 6003 ft 289 kts 332°
2026-05-07 08:30 -5.65061 106.22070 6215 ft 292 kts 332°
2026-05-07 08:30 -5.63268 106.21066 6847 ft 293 kts 332°
2026-05-07 08:31 -5.61508 106.20077 7557 ft 293 kts 332°
2026-05-07 08:31 -5.59716 106.19068 8223 ft 295 kts 332°
2026-05-07 08:31 -5.57937 106.18066 8846 ft 297 kts 332°
2026-05-07 08:31 -5.56122 106.17042 9491 ft 300 kts 332°
2026-05-07 08:32 -5.54289 106.16009 10109 ft 303 kts 332°
2026-05-07 08:32 -5.52402 106.14943 10424 ft 318 kts 332°
2026-05-07 08:32 -5.50439 106.13834 10647 ft 334 kts 332°
2026-05-07 08:32 -5.48360 106.12661 10845 ft 349 kts 332°
2026-05-07 08:33 -5.46201 106.11445 11052 ft 363 kts 332°
2026-05-07 08:33 -5.43951 106.10180 11278 ft 375 kts 332°
2026-05-07 08:33 -5.41683 106.08903 11669 ft 380 kts 332°
2026-05-07 08:33 -5.39340 106.07583 12120 ft 383 kts 332°
2026-05-07 08:34 -5.37022 106.06278 12594 ft 386 kts 332°
2026-05-07 08:34 -5.34686 106.04958 13068 ft 388 kts 332°
2026-05-07 08:34 -5.32315 106.03619 13517 ft 391 kts 332°
2026-05-07 08:34 -5.29932 106.02272 13935 ft 393 kts 332°
2026-05-07 08:35 -5.27552 106.00927 14321 ft 396 kts 332°
2026-05-07 08:35 -5.25139 105.99564 14741 ft 398 kts 332°
2026-05-07 08:35 -5.22733 105.98205 15138 ft 400 kts 332°
2026-05-07 08:35 -5.20291 105.96827 15525 ft 403 kts 332°
2026-05-07 08:36 -5.17830 105.95438 15923 ft 406 kts 332°
2026-05-07 08:36 -5.15379 105.94055 16345 ft 408 kts 332°
2026-05-07 08:36 -5.12894 105.92654 16792 ft 409 kts 332°
2026-05-07 08:36 -5.10415 105.91258 17169 ft 413 kts 332°
2026-05-07 08:37 -5.07893 105.89823 17573 ft 415 kts 332°
2026-05-07 08:37 -5.05393 105.88391 17967 ft 418 kts 332°
2026-05-07 08:37 -5.02846 105.86932 18344 ft 420 kts 331°
2026-05-07 08:37 -5.00325 105.85490 18713 ft 421 kts 332°
2026-05-07 08:38 -4.97760 105.84023 19026 ft 424 kts 332°
2026-05-07 08:38 -4.95202 105.82564 19366 ft 426 kts 331°
2026-05-07 08:38 -4.92631 105.81099 19723 ft 428 kts 332°
2026-05-07 08:38 -4.90024 105.79613 20086 ft 429 kts 332°
2026-05-07 08:39 -4.87413 105.78124 20385 ft 432 kts 332°
2026-05-07 08:39 -4.84810 105.76641 20701 ft 434 kts 332°
2026-05-07 08:39 -4.82189 105.75150 21043 ft 436 kts 332°
2026-05-07 08:39 -4.79533 105.73639 21384 ft 437 kts 332°
2026-05-07 08:40 -4.76903 105.72141 21700 ft 440 kts 332°
2026-05-07 08:40 -4.74229 105.70618 22052 ft 441 kts 332°
2026-05-07 08:40 -4.71553 105.69096 22382 ft 442 kts 332°
2026-05-07 08:40 -4.68851 105.67562 22671 ft 445 kts 332°
2026-05-07 08:41 -4.66190 105.66047 22965 ft 446 kts 332°
2026-05-07 08:41 -4.63480 105.64504 23239 ft 449 kts 332°
2026-05-07 08:41 -4.60756 105.62955 23507 ft 451 kts 332°
2026-05-07 08:41 -4.58011 105.61393 23748 ft 452 kts 332°
2026-05-07 08:42 -4.55275 105.59837 23998 ft 454 kts 332°
2026-05-07 08:42 -4.52517 105.58266 24243 ft 455 kts 332°
2026-05-07 08:42 -4.49771 105.56704 24487 ft 457 kts 332°
2026-05-07 08:42 -4.47017 105.55138 24729 ft 458 kts 332°
2026-05-07 08:43 -4.44205 105.53542 24979 ft 460 kts 332°
2026-05-07 08:43 -4.41446 105.51974 25217 ft 461 kts 332°
2026-05-07 08:43 -4.38635 105.50375 25471 ft 462 kts 332°
2026-05-07 08:43 -4.35835 105.48782 25725 ft 463 kts 332°
2026-05-07 08:44 -4.33016 105.47177 25950 ft 465 kts 332°
2026-05-07 08:44 -4.30223 105.45588 26202 ft 467 kts 332°
2026-05-07 08:44 -4.27387 105.43976 26451 ft 468 kts 332°
2026-05-07 08:44 -4.24572 105.42375 26682 ft 470 kts 332°
2026-05-07 08:45 -4.21723 105.40757 26938 ft 471 kts 332°
2026-05-07 08:45 -4.18861 105.39130 27191 ft 473 kts 332°
2026-05-07 08:45 -4.15978 105.37493 27441 ft 475 kts 332°
2026-05-07 08:45 -4.13092 105.35853 27686 ft 476 kts 332°
2026-05-07 08:46 -4.10202 105.34212 27955 ft 478 kts 332°
2026-05-07 08:46 -4.07335 105.32583 28216 ft 480 kts 332°
2026-05-07 08:46 -4.04416 105.30926 28460 ft 481 kts 332°
2026-05-07 08:46 -4.01488 105.29262 28661 ft 484 kts 332°
2026-05-07 08:47 -3.98574 105.27605 28873 ft 487 kts 332°
2026-05-07 08:47 -3.95626 105.25919 29111 ft 488 kts 332°
2026-05-07 08:47 -3.92645 105.24233 29379 ft 489 kts 333°
2026-05-07 08:47 -3.89653 105.22597 29643 ft 490 kts 334°
2026-05-07 08:48 -3.86612 105.21020 29899 ft 491 kts 335°
2026-05-07 08:48 -3.83567 105.19544 30116 ft 491 kts 336°
2026-05-07 08:48 -3.80431 105.18146 30318 ft 492 kts 339°
2026-05-07 08:48 -3.77237 105.16859 30495 ft 493 kts 341°
2026-05-07 08:49 -3.74034 105.15707 30652 ft 494 kts 343°
2026-05-07 08:49 -3.70741 105.14670 30779 ft 496 kts 345°
2026-05-07 08:49 -3.64029 105.13025 30930 ft 502 kts 350°
2026-05-07 08:50 -3.57041 105.11969 30908 ft 511 kts 355°
2026-05-07 08:50 -3.49893 105.11578 30636 ft 522 kts
2026-05-07 08:51 -3.46257 105.11656 30327 ft 528 kts
2026-05-07 08:51 -3.42564 105.11941 29821 ft 534 kts
2026-05-07 08:51 -3.38839 105.12448 28879 ft 543 kts 11°
2026-05-07 08:51 -3.35109 105.13193 27378 ft 560 kts 14°
2026-05-07 08:52 -3.31270 105.14224 25222 ft 582 kts 18°
2026-05-07 08:52 -3.27438 105.15381 19888 ft 413 kts 21°
2026-05-07 08:52 -3.24890 105.16484 20035 ft 385 kts 30°
2026-05-07 08:52 -3.22618 105.17812 19330 ft 382 kts 28°
2026-05-07 08:53 -3.20180 105.18973 18444 ft 389 kts 21°
2026-05-07 08:53 -3.17465 105.19438 16503 ft 412 kts